OBJECT B, 69503

Orbit data source: Space-Track

You're viewing an Uncataloged Satellite

Recently launched and/or uncataloged satellites may have evolving metadata. Metadata may include but not limited to: Owner, Maufacturer, Bus, Motor, and Mission.

OBJECT B, 69503 is a satellite in SSO that was launched on Fri, 12 Jun 2026 UTC via a H3-30S launch vehicle from the Tanegashima Space Center (TNSTA). Unknown objects in Earth's orbit typically refer to objects detected orbiting the Earth but have not yet been identified or cataloged. These objects could be anything from previously untracked satellites, spent rocket stages, debris from satellite collisions, or even natural meteoroids temporarily captured by Earth's gravity.

Loading next visibility...
Identifier
69503, 2026-132B
Orbit
SSO
Country
Flag of TBDTBD
Related business
None
Manufacturer
Unknown
Mission
Operational spacecraft
Bus & Motor
Unknown
Mass
Unknown
Launch date (UTC)
2026-06-12 (1 day ago)
Launch vehicle
H3-30S
Launch site
Tanegashima Space Center (TNSTA)
Object type
Unknown
Shape & HBR
Unknown
Radar Cross Section
RCS unknown

Expand to show TLE details & history
Last TLE update: 7 hours ago

TLE from 7 hours ago
0 OBJECT B
1 69503U 26132B   26164.48374337  .00000709  00000-0  63111-4 0  9997
2 69503  97.6950 228.2085 0012108 287.4366  72.5533 14.99132844   220
Epoch: 2026-06-13T11:36Z
TLE epoch observation values (Epoch: 2026-06-13T11:36:35.427Z)
Latitude
-0°
Longitude
152.26271°
Altitude
570.114 km
Speed
7.577 km/s
True Right ascension
15h 12m 50s
True Declination
0° 00' 00"
Sunlit
Object was in full shadow at epoch
Visualization orbit readout
Latitude
Unknown
Longitude
Unknown
Altitude
Unknown
Speed
Unknown
Apparent Right ascension
Unknown
Apparent Declination
Unknown
Sunlit
N/A
Visualization observer readout
Local Sidereal Time
05:00:47
Azimuth
Unknown
Elevation
Unknown
Doppler factor
Unknown
Orbital elements
Apogee altitude
574.989 km
Perigee altitude
558.172 km
Semi-major axis
6,944.717 km
Eccentricity
0.00121
Inclination
97.695°
RAAN
228.2085°
Arg. of periapsis
287.4366°
True anomaly
72.68572°
Mean anomaly
72.5533°
Eccentric anomaly
72.61951°
Mean motion
3.75026 °/min
Orbital period
95.99 mins
BSTAR
0.000063111
Loading maneuver chart data...
Computing Atmospheric mass density...
Loading historical data...
Loading historical data...
Loading historical data...
Loading historical data...
Loading historical data...
Loading historical data...
Loading historical data...
Other satellites on launch #132 in the year 2026 (2026-06-12 UTC)

Documentation

Showing up to 5 results
|